Temp
-8 -8 -9 -9 -9 -9 -9 -10 -10 -10 -10 -10 -10 -10 -10 -9 -9 -9 -9 -9 -9 -9 -9 -9 -9 -8 -9 -9 -8 -8 -8 -7 -7 -8 -8 -9 -8 -9 -8 -8 -9 -9 -9 -9 -9
-8 -8 -9 -9 -9 -9 -9 -10 -10 -10 -10 -10 -10 -10 -10 -10 -10 -9 -9 -9 -9 -9 -9 -9 -9 -9 -9 -9 -8 -8 -8 -7 -8 -8 -8 -9 -8 -8 -9 -8 -8 -9 -8 -9 -9
-8 -8 -8 -9 -9 -10 -10 -10 -10 -10 -10 -10 -10 -10 -10 -10 -10 -10 -10 -10 -10 -9 -9 -9 -9 -9 -9 -9 -9 -8 -8 -8 -8 -8 -8 -9 -8 -8 -8 -9 -9 -8 -8 -9 -9
-8 -8 -8 -9 -9 -9 -10 -10 -10 -10 -10 -9 -9 -10 -10 -10 -10 -10 -10 -10 -10 -10 -10 -10 -10 -10 -9 -9 -9 -8 -8 -8 -8 -8 -8 -8 -9 -8 -7 -8 -10 -8 -7 -10 -10
-8 -8 -8 -9 -9 -9 -10 -10 -10 -10 -10 -10 -9 -10 -10 -10 -10 -11 -11 -11 -11 -10 -10 -10 -10 -10 -10 -9 -9 -9 -9 -9 -9 -8 -8 -8 -8 -7 -7 -8 -10 -10 -8 -10 -11
-8 -9 -9 -9 -9 -9 -9 -10 -10 -10 -10 -10 -10 -10 -10 -11 -10 -11 -11 -11 -11 -11 -11 -11 -10 -10 -10 -10 -10 -9 -9 -9 -9 -9 -8 -8 -7 -7 -7 -8 -9 -10 -9 -9 -11
-9 -9 -9 -9 -9 -9 -9 -10 -10 -10 -10 -10 -10 -10 -11 -10 -11 -11 -11 -11 -11 -11 -11 -11 -11 -11 -11 -11 -10 -10 -10 -10 -10 -9 -9 -8 -7 -7 -9 -9 -9 -10 -11 -12 -11
-9 -9 -9 -9 -9 -9 -9 -9 -10 -11 -11 -10 -11 -11 -11 -11 -12 -11 -11 -11 -11 -11 -11 -12 -11 -11 -11 -11 -11 -11 -11 -11 -10 -9 -10 -9 -8 -10 -11 -11 -10 -11 -12 -13 -13
-10 -10 -10 -9 -9 -10 -10 -10 -10 -10 -11 -11 -11 -11 -11 -11 -12 -12 -12 -12 -12 -11 -12 -12 -12 -12 -12 -12 -12 -12 -12 -12 -12 -11 -12 -11 -12 -13 -13 -13 -13 -13 -13 -13 -11
-10 -10 -10 -10 -10 -10 -10 -10 -10 -11 -11 -11 -11 -11 -11 -11 -12 -12 -12 -12 -12 -12 -12 -12 -12 -12 -12 -12 -13 -13 -13 -13 -14 -14 -14 -14 -14 -14 -15 -14 -14 -14 -14 -14 -13
-10 -10 -10 -10 -10 -10 -10 -10 -10 -11 -11 -12 -12 -12 -12 -12 -12 -13 -13 -13 -13 -13 -13 -13 -13 -13 -13 -14 -13 -13 -14 -14 -15 -14 -15 -15 -15 -15 -16 -16 -15 -16 -14 -13 -13
-10 -11 -11 -11 -11 -11 -11 -11 -11 -11 -11 -11 -12 -12 -12 -12 -12 -13 -13 -13 -13 -14 -14 -14 -14 -14 -14 -14 -13 -13 -14 -14 -15 -15 -14 -15 -15 -16 -17 -16 -16 -16 -15 -14 -14
-11 -11 -11 -12 -12 -12 -11 -11 -11 -11 -10 -12 -12 -13 -12 -12 -13 -13 -14 -14 -14 -14 -14 -14 -15 -15 -15 -14 -14 -14 -14 -15 -16 -16 -15 -15 -15 -15 -16 -16 -16 -15 -15 -15 -15
-11 -12 -12 -13 -13 -12 -12 -12 -11 -11 -11 -12 -13 -13 -13 -13 -13 -14 -14 -14 -15 -14 -14 -15 -15 -16 -15 -14 -14 -14 -15 -16 -16 -16 -16 -16 -15 -15 -15 -15 -16 -16 -14 -14 -14
-12 -12 -12 -12 -13 -13 -12 -12 -12 -12 -12 -12 -13 -13 -13 -13 -14 -14 -15 -15 -15 -15 -15 -15 -15 -16 -15 -15 -15 -14 -15 -16 -16 -16 -16 -16 -15 -15 -15 -15 -14 -15 -16 -16 -15
-12 -12 -12 -13 -14 -14 -13 -14 -14 -13 -12 -14 -14 -14 -14 -14 -14 -15 -15 -15 -15 -16 -16 -15 -16 -16 -15 -16 -15 -14 -15 -15 -16 -16 -16 -16 -15 -15 -15 -15 -16 -15 -15 -15 -15
-12 -13 -14 -14 -15 -16 -15 -16 -16 -15 -16 -16 -16 -15 -15 -15 -15 -15 -15 -15 -15 -15 -15 -15 -15 -15 -15 -16 -15 -15 -16 -16 -16 -16 -15 -15 -15 -15 -15 -15 -15 -16 -15 -15 -15
-12 -13 -14 -15 -16 -17 -18 -18 -18 -16 -17 -18 -17 -17 -16 -16 -16 -16 -16 -15 -16 -16 -16 -16 -16 -16 -16 -16 -16 -16 -16 -16 -15 -15 -15 -15 -15 -15 -15 -15 -15 -15 -15 -15 -15
-13 -14 -15 -16 -18 -19 -19 -19 -18 -18 -19 -19 -18 -18 -16 -17 -16 -16 -16 -16 -16 -16 -16 -16 -17 -17 -17 -17 -17 -16 -16 -16 -16 -16 -16 -16 -15 -15 -15 -15 -15 -15 -15 -16 -16
-14 -14 -16 -17 -19 -20 -20 -19 -19 -19 -20 -19 -19 -17 -17 -16 -17 -16 -16 -16 -16 -17 -17 -17 -17 -17 -17 -17 -17 -17 -17 -17 -17 -17 -16 -16 -16 -15 -16 -16 -15 -15 -15 -15 -15
-16 -16 -17 -18 -19 -20 -20 -20 -20 -21 -21 -20 -19 -18 -17 -16 -17 -16 -17 -17 -16 -16 -17 -17 -17 -17 -17 -17 -17 -17 -17 -17 -17 -17 -17 -17 -16 -16 -16 -16 -16 -16 -16 -16 -16
-17 -17 -17 -19 -19 -20 -20 -21 -21 -21 -21 -20 -19 -18 -17 -16 -16 -16 -16 -17 -16 -17 -16 -17 -17 -17 -17 -17 -17 -17 -17 -17 -17 -17 -17 -17 -17 -17 -16 -16 -16 -16 -16 -16 -16
-17 -19 -18 -19 -20 -20 -20 -20 -19 -21 -20 -20 -19 -19 -19 -17 -16 -16 -16 -17 -17 -17 -17 -16 -16 -17 -17 -17 -17 -17 -16 -16 -17 -17 -17 -17 -16 -17 -17 -17 -17 -17 -17 -16 -16
-19 -19 -20 -21 -21 -21 -21 -20 -20 -20 -20 -20 -19 -18 -18 -18 -17 -17 -16 -17 -17 -17 -17 -17 -16 -16 -16 -16 -17 -17 -17 -17 -17 -16 -16 -16 -16 -16 -17 -17 -17 -17 -17 -17 -17
-21 -21 -22 -22 -22 -21 -21 -21 -20 -19 -19 -19 -19 -19 -18 -17 -17 -17 -17 -17 -17 -17 -17 -17 -17 -17 -17 -17 -17 -17 -16 -16 -16 -16 -15 -16 -16 -16 -16 -17 -17 -17 -17 -17 -17
-23 -23 -23 -23 -23 -22 -22 -21 -20 -20 -20 -19 -19 -19 -18 -18 -17 -18 -18 -19 -18 -18 -18 -17 -17 -17 -17 -17 -16 -16 -16 -16 -16 -16 -16 -16 -15 -16 -16 -17 -17 -17 -17 -17 -17
-25 -24 -24 -24 -23 -22 -23 -22 -21 -21 -20 -19 -19 -19 -19 -18 -18 -19 -19 -18 -17 -17 -17 -17 -17 -17 -17 -16 -16 -16 -16 -16 -16 -16 -16 -15 -16 -15 -16 -16 -17 -17 -17 -17 -17
Height
5809 5805 5800 5797 5794 5790 5788 5785 5783 5780 5778 5777 5777 5777 5777 5778 5779 5781 5783 5789 5790 5791 5794 5798 5800 5803 5805 5808 5811 5814 5816 5820 5825 5830 5837 5839 5841 5838 5843 5846 5843 5851 5858 5862 5864
5808 5803 5799 5795 5791 5787 5784 5782 5780 5777 5775 5772 5770 5770 5770 5771 5772 5774 5777 5779 5782 5784 5787 5790 5793 5795 5798 5800 5802 5805 5809 5811 5816 5818 5823 5827 5831 5831 5834 5838 5840 5836 5852 5855 5855
5805 5801 5797 5793 5789 5785 5782 5778 5775 5772 5771 5768 5765 5764 5765 5765 5766 5767 5769 5771 5773 5776 5778 5781 5784 5787 5789 5791 5794 5797 5801 5802 5804 5806 5810 5818 5821 5823 5821 5829 5834 5831 5838 5847 5850
5803 5798 5794 5790 5786 5782 5778 5774 5771 5767 5764 5762 5759 5757 5758 5760 5761 5760 5762 5765 5766 5768 5771 5773 5776 5778 5781 5783 5785 5788 5790 5791 5792 5795 5798 5803 5807 5811 5818 5820 5823 5824 5827 5836 5840
5799 5794 5790 5786 5782 5778 5773 5769 5765 5762 5758 5756 5754 5752 5752 5753 5753 5754 5754 5757 5759 5761 5763 5765 5768 5770 5772 5775 5777 5778 5780 5781 5781 5784 5785 5786 5797 5806 5811 5808 5807 5814 5820 5825 5831
5795 5791 5787 5782 5777 5773 5769 5764 5760 5756 5753 5750 5748 5747 5746 5745 5747 5748 5748 5750 5751 5753 5756 5757 5759 5762 5765 5767 5768 5770 5771 5772 5771 5773 5773 5774 5783 5792 5793 5796 5797 5802 5808 5813 5820
5791 5786 5781 5777 5773 5769 5764 5758 5755 5751 5748 5744 5743 5740 5740 5740 5740 5740 5741 5742 5744 5746 5748 5751 5753 5755 5757 5758 5759 5761 5761 5760 5758 5760 5763 5762 5768 5772 5776 5780 5783 5786 5793 5803 5808
5784 5780 5775 5772 5767 5762 5758 5753 5750 5746 5742 5740 5737 5737 5732 5735 5733 5734 5735 5735 5736 5738 5741 5744 5745 5747 5748 5750 5751 5752 5750 5749 5749 5750 5752 5751 5753 5756 5759 5765 5769 5773 5779 5786 5797
5778 5773 5769 5764 5760 5756 5751 5747 5743 5739 5737 5733 5731 5730 5727 5726 5726 5728 5727 5727 5728 5730 5733 5736 5738 5739 5740 5742 5744 5744 5743 5741 5740 5740 5740 5739 5738 5745 5743 5753 5758 5761 5765 5775 5779
5769 5764 5759 5754 5750 5746 5743 5740 5735 5733 5729 5726 5725 5723 5720 5719 5718 5718 5718 5718 5720 5723 5725 5729 5731 5732 5734 5735 5737 5737 5737 5736 5735 5735 5733 5731 5730 5733 5733 5741 5748 5751 5764 5773 5776
5759 5754 5749 5744 5740 5737 5735 5732 5731 5726 5722 5719 5717 5714 5713 5710 5710 5710 5710 5711 5712 5716 5719 5720 5723 5727 5726 5727 5729 5732 5732 5732 5732 5731 5730 5730 5730 5728 5729 5735 5742 5754 5762 5766 5771
5749 5745 5741 5736 5732 5727 5725 5722 5720 5717 5715 5709 5708 5706 5703 5702 5702 5701 5703 5706 5708 5710 5710 5715 5719 5720 5718 5721 5725 5727 5728 5729 5728 5729 5729 5729 5730 5731 5732 5737 5743 5753 5756 5757 5767
5737 5731 5727 5723 5720 5718 5713 5710 5708 5706 5703 5704 5697 5698 5695 5695 5692 5694 5695 5698 5701 5702 5705 5709 5712 5710 5713 5716 5719 5722 5724 5724 5726 5726 5727 5728 5729 5731 5734 5736 5741 5747 5753 5757 5761
5723 5718 5714 5711 5707 5703 5697 5697 5695 5691 5689 5692 5688 5688 5686 5685 5685 5684 5687 5690 5692 5697 5698 5701 5704 5705 5708 5711 5714 5718 5719 5720 5722 5723 5725 5726 5728 5729 5733 5736 5739 5744 5748 5754 5755
5711 5707 5700 5697 5694 5687 5685 5683 5679 5676 5673 5676 5675 5676 5676 5677 5677 5678 5680 5681 5686 5689 5691 5698 5698 5699 5702 5708 5709 5714 5714 5716 5718 5720 5722 5724 5726 5728 5730 5733 5736 5740 5745 5748 5752
5697 5690 5686 5680 5675 5668 5665 5664 5660 5660 5656 5661 5663 5665 5667 5666 5668 5670 5672 5674 5678 5679 5683 5688 5690 5692 5699 5700 5704 5707 5710 5712 5715 5717 5718 5720 5724 5727 5730 5731 5733 5737 5742 5746 5748
5678 5668 5664 5662 5658 5647 5645 5643 5641 5636 5647 5651 5653 5654 5656 5657 5659 5662 5665 5667 5671 5674 5678 5682 5684 5689 5691 5694 5699 5703 5705 5707 5710 5711 5716 5717 5721 5724 5727 5730 5732 5735 5738 5741 5744
5661 5651 5646 5638 5636 5631 5628 5627 5624 5629 5639 5643 5642 5645 5647 5649 5652 5655 5657 5661 5663 5667 5671 5674 5678 5682 5685 5688 5694 5697 5700 5702 5704 5706 5711 5713 5714 5720 5725 5727 5729 5731 5733 5735 5737
5645 5636 5627 5620 5616 5614 5612 5608 5615 5623 5630 5632 5633 5635 5639 5642 5646 5648 5651 5655 5658 5662 5666 5669 5671 5675 5678 5682 5688 5691 5692 5697 5699 5701 5704 5706 5710 5714 5716 5719 5720 5722 5724 5726 5728
5627 5620 5611 5603 5601 5599 5596 5599 5605 5614 5618 5621 5623 5625 5629 5635 5638 5642 5645 5650 5652 5655 5659 5662 5665 5669 5673 5677 5681 5684 5688 5690 5692 5694 5697 5698 5702 5707 5709 5710 5711 5713 5715 5718 5721
5608 5602 5597 5591 5588 5587 5587 5591 5596 5602 5605 5609 5614 5615 5622 5624 5631 5635 5640 5644 5647 5651 5654 5657 5660 5665 5667 5670 5675 5678 5680 5683 5686 5688 5689 5693 5695 5698 5701 5703 5704 5705 5706 5708 5709
5594 5587 5585 5581 5579 5577 5579 5582 5586 5592 5594 5599 5605 5609 5609 5618 5620 5623 5630 5637 5643 5647 5649 5652 5655 5657 5661 5665 5667 5669 5672 5676 5678 5682 5683 5685 5688 5690 5692 5694 5695 5696 5697 5699 5701
5585 5576 5573 5570 5569 5570 5571 5573 5575 5580 5584 5591 5595 5602 5606 5607 5615 5619 5623 5628 5637 5641 5643 5646 5649 5653 5657 5659 5661 5663 5666 5669 5671 5675 5676 5677 5681 5682 5684 5685 5686 5687 5689 5690 5692
5572 5566 5561 5559 5560 5560 5562 5566 5570 5573 5577 5582 5586 5591 5597 5601 5608 5612 5614 5622 5629 5634 5636 5641 5643 5646 5649 5652 5655 5657 5660 5662 5664 5666 5670 5670 5673 5673 5674 5676 5677 5679 5680 5682 5683
5554 5553 5553 5552 5552 5553 5555 5560 5564 5567 5570 5577 5580 5584 5590 5596 5602 5606 5608 5614 5618 5625 5630 5633 5635 5638 5642 5645 5648 5652 5654 5656 5659 5660 5661 5664 5666 5666 5666 5666 5667 5669 5671 5672 5673
5541 5542 5543 5544 5543 5546 5549 5552 5557 5561 5566 5571 5575 5578 5585 5588 5592 5596 5603 5608 5614 5619 5623 5627 5631 5635 5637 5640 5643 5645 5647 5650 5651 5652 5655 5657 5659 5660 5657 5656 5657 5658 5660 5662 5663
5532 5533 5533 5536 5538 5540 5543 5545 5550 5554 5559 5565 5569 5573 5578 5582 5587 5590 5597 5603 5610 5614 5618 5622 5626 5629 5633 5635 5637 5639 5642 5642 5643 5645 5647 5650 5652 5650 5650 5648 5648 5649 5650 5652 5654
Wind_Speed
32 31 29 26 24 23 20 20 19 18 19 25 29 30 29 30 31 33 37 35 36 39 39 38 40 40 39 39 39 39 41 41 39 37 35 36 41 45 47 51 53 48 53 48 48
30 32 31 30 27 25 24 23 22 23 22 21 25 28 29 29 29 33 34 37 37 37 38 38 38 39 39 40 41 41 43 42 39 39 39 37 41 47 49 51 54 59 48 48 54
30 30 30 30 30 27 24 25 25 24 23 23 21 25 28 27 28 30 33 35 39 37 37 37 37 38 39 40 41 42 43 44 45 45 45 42 43 45 52 54 53 61 58 50 49
31 32 31 31 31 31 29 27 26 26 23 22 23 22 25 26 27 26 28 31 36 38 38 38 37 38 38 40 42 43 44 46 47 49 50 49 49 49 51 53 55 61 63 50 53
33 34 33 32 32 32 33 31 27 26 25 22 22 22 24 26 28 24 26 28 31 34 36 37 37 38 39 39 42 43 43 48 50 52 55 57 53 53 54 57 60 62 63 58 51
34 33 34 32 33 32 34 34 32 27 25 24 21 21 22 28 27 25 25 27 29 33 34 36 37 38 37 37 40 42 43 44 47 48 52 56 57 55 60 61 65 65 66 66 57
38 38 39 35 34 34 36 35 33 30 26 25 23 22 22 24 24 27 26 26 29 32 34 34 33 33 32 35 36 36 35 36 38 41 44 49 53 54 62 68 71 72 71 66 67
40 41 42 40 38 34 35 37 37 33 28 24 24 25 25 23 27 28 25 27 28 30 31 31 31 31 31 29 30 30 29 26 33 36 29 38 43 44 53 72 76 73 72 70 67
43 43 43 43 41 39 38 38 39 35 32 26 24 24 29 27 30 29 28 29 29 27 26 28 29 30 25 25 25 23 17 15 17 22 21 25 28 28 46 66 72 75 76 62 60
45 44 43 44 42 42 41 41 38 36 33 32 26 26 27 28 29 28 29 29 29 27 26 25 29 26 23 22 21 19 12 10 11 18 19 24 28 21 39 56 73 72 50 60 57
52 51 48 45 45 45 43 42 42 39 38 34 29 26 25 29 29 29 29 30 28 25 22 24 27 22 25 23 24 18 14 8 10 15 14 19 25 17 25 42 62 44 46 47 47
56 54 52 49 46 45 45 44 43 43 39 41 32 28 28 30 30 30 30 29 25 22 24 23 21 25 29 23 22 17 12 10 11 16 17 13 18 11 19 25 32 40 38 35 29
55 52 48 46 46 45 45 41 42 44 45 35 38 27 31 29 30 29 29 27 25 26 23 21 24 31 27 25 22 17 16 13 11 16 19 16 18 16 24 26 23 42 33 25 33
58 54 51 46 44 42 46 42 43 45 49 42 36 31 31 28 29 30 28 28 28 25 26 24 28 30 27 26 23 19 18 18 18 19 20 21 16 16 27 29 18 24 34 32 29
61 58 55 51 47 46 50 46 48 48 48 42 35 29 25 25 26 27 28 30 27 26 29 22 28 30 31 24 25 19 23 22 22 24 26 24 19 16 17 22 24 23 20 18 18
64 61 56 51 47 52 53 50 52 48 50 39 33 27 23 24 26 28 29 30 29 28 29 28 30 32 26 28 25 23 24 25 26 27 30 28 20 14 17 15 24 25 23 23 25
67 63 55 50 47 53 53 51 52 53 37 31 28 28 24 25 25 26 27 28 29 28 26 25 29 26 27 28 26 25 25 29 30 30 30 29 25 22 19 19 21 29 29 30 31
70 61 53 51 50 51 52 51 52 51 33 25 22 25 25 26 26 26 27 27 30 28 26 27 28 27 26 26 24 25 26 30 32 30 30 33 34 29 24 24 26 30 33 36 35
67 56 51 51 50 49 47 51 48 43 27 26 27 30 30 26 26 26 24 25 27 25 25 25 28 29 30 28 26 27 30 29 32 32 32 33 35 32 32 32 35 36 36 36 36
61 47 48 46 40 42 44 45 43 36 28 30 33 31 33 31 28 27 25 23 26 26 26 24 28 29 31 32 32 31 30 31 33 33 32 32 30 27 25 25 26 29 35 39 41
46 44 41 37 32 30 35 34 31 28 28 34 35 29 29 35 32 29 26 21 23 22 21 18 21 29 32 34 32 35 35 35 34 35 34 31 31 27 24 22 25 25 26 28 29
42 37 33 28 26 21 20 25 25 25 30 35 33 36 30 32 34 36 32 24 23 22 23 23 23 21 20 19 22 32 39 40 40 38 37 36 35 34 30 28 29 30 31 31 31
41 35 31 24 20 18 15 18 24 30 33 30 32 35 38 34 28 33 35 27 27 25 28 23 32 23 21 23 21 20 17 19 35 41 42 43 40 37 35 36 36 36 36 35 32
42 36 28 20 13 17 17 17 23 28 32 33 30 32 32 32 30 34 31 30 26 22 29 26 27 27 22 24 22 23 21 26 26 25 25 25 26 29 31 33 34 36 38 37 34
42 36 24 19 17 20 16 14 15 22 27 30 33 35 29 27 27 27 26 25 23 29 31 34 26 21 21 18 20 24 25 27 28 27 25 21 20 24 27 29 34 36 37 35 35
35 29 22 20 22 23 17 18 18 18 17 22 33 34 34 31 27 26 28 26 29 30 28 26 24 19 21 22 23 25 26 25 23 24 23 23 22 24 28 31 32 34 36 36 36
23 21 19 22 23 25 22 20 23 18 22 24 28 30 31 31 22 29 26 27 28 23 23 23 22 23 25 25 26 27 22 26 26 26 26 25 22 26 27 29 32 34 34 35 37
Wind_Direction
350 351 352 354 347 341 336 333 328 319 300 281 271 262 256 255 258 252 245 244 242 243 243 242 242 243 245 245 246 247 247 248 247 246 243 238 234 239 240 242 250 239 236 236 239
347 345 345 348 345 340 334 328 321 317 314 300 283 268 259 256 253 253 252 247 243 241 242 242 244 246 246 247 248 249 251 252 253 250 243 235 233 236 238 239 243 250 240 237 237
340 339 339 341 340 335 333 327 321 314 305 304 289 272 266 259 254 253 250 248 247 246 244 244 245 246 246 247 247 249 250 252 252 252 249 242 240 233 237 238 240 246 247 241 244
337 333 333 334 335 333 329 327 324 317 307 296 292 277 264 263 260 255 251 248 245 244 245 244 244 246 248 249 250 252 252 254 255 255 253 249 239 237 239 238 236 240 245 242 241
327 329 328 326 329 329 326 325 322 322 311 297 290 279 262 259 264 263 254 246 245 243 242 243 244 245 246 249 251 253 254 256 257 258 257 255 249 246 241 239 232 236 240 240 238
324 324 323 323 323 325 325 323 320 317 315 301 289 281 266 256 260 261 259 250 245 245 243 242 243 245 248 250 253 253 256 256 256 256 256 256 254 246 240 234 236 233 237 237 232
316 318 317 315 313 318 319 319 317 315 310 307 290 278 269 262 260 255 256 254 248 247 246 246 248 249 247 248 253 256 256 254 253 255 258 256 254 245 235 228 229 230 232 229 232
319 314 314 311 308 306 310 313 316 313 311 303 298 280 269 265 258 258 255 255 256 254 252 248 244 244 245 251 255 256 253 255 258 260 267 263 256 245 234 224 225 227 226 224 225
317 313 312 310 305 299 302 305 307 309 307 298 293 285 272 262 260 261 262 256 253 252 247 248 246 243 244 250 253 247 250 265 284 291 304 296 282 248 237 222 221 225 224 221 219
314 312 309 305 301 299 296 297 299 301 300 298 292 285 274 264 258 255 252 252 250 248 244 250 245 242 242 244 242 240 244 250 282 293 307 311 306 261 236 223 220 226 227 226 225
311 310 307 303 299 296 297 293 296 296 298 293 288 280 274 265 257 250 250 251 248 247 246 241 239 233 234 227 238 241 243 244 261 281 291 303 306 293 236 224 221 219 225 227 217
314 312 308 304 301 296 296 290 289 292 294 293 288 278 270 265 260 251 249 251 251 246 241 238 226 225 231 227 237 238 228 225 252 270 276 275 290 258 205 217 223 221 238 241 223
313 311 308 302 298 297 292 287 286 288 290 287 285 271 272 266 256 250 246 243 244 235 231 228 214 222 223 227 232 228 224 211 229 253 263 255 262 234 212 220 226 229 234 250 249
312 309 306 297 293 289 282 282 281 283 285 286 274 272 270 260 252 246 241 238 238 237 234 220 217 224 225 228 228 227 207 202 212 235 251 254 254 248 231 235 266 224 231 236 237
311 310 304 300 291 281 283 276 274 272 276 281 273 268 262 258 248 248 237 237 235 239 237 226 219 224 229 225 227 214 213 209 218 229 240 248 251 250 243 235 240 240 234 228 237
313 310 304 297 285 274 275 269 266 265 266 265 268 265 258 256 249 239 235 233 228 231 229 224 222 225 230 229 227 221 215 221 225 232 238 241 252 245 221 209 201 215 228 234 236
311 307 303 298 277 273 267 263 258 253 255 263 265 261 252 247 243 236 232 234 234 237 236 229 229 229 225 230 226 228 217 223 232 235 238 243 247 241 229 213 210 221 232 242 250
311 311 303 290 277 269 268 262 257 259 259 254 253 253 253 242 236 234 232 229 229 228 226 233 231 227 227 230 226 230 231 231 235 242 239 241 245 249 245 243 237 234 235 240 244
315 313 299 289 278 270 268 262 264 263 255 242 240 239 237 241 238 238 237 233 229 230 231 236 223 222 228 228 224 228 235 235 239 246 249 246 247 251 255 250 247 247 248 249 249
320 310 296 291 282 273 267 267 267 260 248 236 237 240 226 231 238 239 239 232 227 221 223 233 223 223 231 232 231 230 234 237 242 247 252 256 252 252 251 255 251 251 251 252 256
313 306 300 295 287 277 272 273 270 252 231 232 235 236 235 225 221 228 229 228 222 217 217 219 228 228 230 233 238 240 242 242 244 247 254 261 264 261 255 254 259 260 261 260 257
305 301 305 293 290 279 274 260 250 237 226 235 231 238 231 228 216 210 210 213 218 214 225 219 207 202 213 215 231 237 241 243 249 251 257 262 263 269 267 263 263 264 264 264 262
299 297 295 289 284 263 256 260 245 219 217 226 233 232 240 232 229 226 211 203 211 222 233 243 230 219 217 221 223 240 239 236 243 251 256 258 263 263 262 264 267 269 268 269 262
295 289 279 268 256 259 248 237 244 235 211 224 222 228 238 241 226 234 208 204 202 220 232 233 230 231 245 224 231 242 247 245 246 258 260 258 260 263 261 261 261 260 262 265 262
292 291 270 254 243 241 244 225 238 220 232 225 224 226 221 226 237 236 235 219 221 213 229 237 245 247 241 244 241 251 255 255 259 260 260 266 268 270 267 262 259 257 257 258 253
299 291 268 236 237 243 241 223 230 219 227 229 224 226 234 238 234 211 215 216 225 227 231 242 248 246 251 252 249 250 252 257 258 256 257 260 266 267 262 260 257 256 257 256 253
300 285 267 232 250 240 238 234 227 226 221 214 227 228 234 228 204 209 213 216 219 217 221 228 233 236 242 247 250 250 256 256 256 259 262 265 269 266 265 260 256 254 256 254 255